Home > Weather > Florø > Past weeks

Flag for Norway Past Weather in Florø, Norway — Yesterday and Last 2 Weeks

Now
64 °F

Broken clouds.


Feels Like: 64 °F
Forecast: 58 / 66 °F
Wind: 3 mph from West

Location: Floro

Current Time: Jul 24, 2016 at 10:50:50 AM

Latest Report: Jul 24, 2016 at 10:20 AM


Visibility: N/A

Pressure: 30.09 "Hg

Humidity: 78%

Dew Point: 57 °F

Location of FlorøLocation

Past Weather in Florø — Graph

°F

Florø Temperature Yesterday

Maximum temperature yesterday: 66 °F (at 12:20 PM)
Minimum temperature yesterday: 57 °F (at 3:50 AM)
Average temperature yesterday: 62 °F

High & Low Weather Summary for the Past Weeks

 TemperatureHumidityPressure
High79 °F (Jul 21, 1:20 PM)100% (Jul 12, 2:50 AM)30.12 "Hg (Jul 12, 2:50 AM)
Low48 °F (Jul 10, 1:50 AM)39% (Jul 21, 2:20 PM)29.42 "Hg (Jul 11, 5:20 AM)
Average59 °F84%29.85 "Hg
* Reported Jul 9 9:20 AM — Jul 24 9:20 AM, Florø, Weather by CustomWeather, © 2016

Note: Actual official high and low records may vary slightly from our data, if they occured in-between our weather recording intervals... More about our weather records

Advertising

Florø Weather History for the Previous 24 Hours

Scroll right to see more
 ConditionsComfort  
Time TempWeatherWind HumidityBarometerVisibility
9:20 AM
Sun, Jul 24
63 °FCloudy.3 mph88%30.09 "HgN/A
8:50 AM63 °FBroken clouds.5 mph88%30.09 "HgN/A
8:20 AM63 °FBroken clouds.6 mph88%30.09 "HgN/A
7:50 AM63 °FOvercast.5 mph88%30.09 "HgN/A
7:20 AM63 °FPartly sunny.5 mph88%30.09 "HgN/A
6:50 AM61 °FMostly cloudy.6 mph94%30.09 "HgN/A
6:20 AM61 °FPartly sunny.5 mph94%30.09 "HgN/A
5:50 AM59 °FBroken clouds.2 mph94%30.09 "HgN/A
5:20 AM59 °FPassing clouds.3 mph94%30.09 "HgN/A
4:50 AM61 °FOvercast.2 mph94%30.09 "HgN/A
4:20 AM61 °FOvercast.6 mph94%30.09 "HgN/A
3:50 AM61 °FMostly cloudy.7 mph94%30.09 "HgN/A
3:20 AM61 °FMostly cloudy.6 mph94%30.09 "HgN/A
2:50 AM61 °FMostly cloudy.7 mph94%30.09 "HgN/A
2:20 AM59 °FPassing clouds.7 mph94%30.09 "HgN/A
1:50 AM59 °FPassing clouds.5 mph94%30.09 "HgN/A
1:20 AM61 °FPassing clouds.3 mph88%30.09 "HgN/A
12:50 AM59 °FPartly cloudy.6 mph94%30.09 "HgN/A
12:20 AM61 °FCool.6 mph88%30.09 "HgN/A
11:50 PM
Sat, Jul 23
61 °FMostly cloudy.6 mph88%30.09 "HgN/A
11:20 PM61 °FMostly cloudy.5 mph88%30.09 "HgN/A
10:50 PM61 °FRain. More clouds than sun.5 mph88%30.12 "HgN/A
10:20 PM63 °FMostly cloudy.5 mph83%30.12 "HgN/A
9:50 PM63 °FPartly sunny.3 mph77%30.09 "HgN/A
9:20 PM64 °FPartly sunny.3 mph78%30.12 "HgN/A
8:50 PM64 °FPartly sunny.3 mph73%30.09 "HgN/A
8:20 PM64 °FPartly sunny.2 mph73%30.12 "HgN/A
7:50 PM66 °FMostly cloudy.3 mph73%30.09 "HgN/A
7:20 PM66 °FOvercast.5 mph68%30.12 "HgN/A
6:50 PM64 °FMostly cloudy.6 mph78%30.12 "HgN/A
6:20 PM64 °FPartly sunny.3 mph73%30.12 "HgN/A
5:50 PM64 °FOvercast.3 mph78%30.12 "HgN/A
5:20 PM64 °FMore clouds than sun.2 mph78%30.12 "HgN/A
4:50 PM63 °FOvercast.8 mph83%30.12 "HgN/A
4:20 PM63 °FOvercast.8 mph77%30.12 "HgN/A
3:50 PM64 °FBroken clouds.6 mph73%30.12 "HgN/A
3:20 PM63 °FBroken clouds.8 mph77%30.12 "HgN/A
2:50 PM63 °FOvercast.10 mph73%30.12 "HgN/A
2:20 PM64 °FOvercast.9 mph68%30.12 "HgN/A
1:50 PM64 °FOvercast.8 mph68%30.12 "HgN/A
1:20 PM64 °FOvercast.7 mph73%30.12 "HgN/A
12:50 PM64 °FOvercast.8 mph68%30.12 "HgN/A
12:20 PM66 °FOvercast.7 mph68%30.12 "HgN/A
11:50 AM64 °FOvercast.3 mph68%30.12 "HgN/A
11:20 AM64 °FMostly cloudy.2 mph73%30.12 "HgN/A
10:50 AM64 °FOvercast.3 mph73%30.12 "HgN/A
10:20 AM63 °FOvercast.5 mph77%30.12 "HgN/A
Weather by CustomWeather, © 2016

See weather overviewHow to use our weather pages